• In Latvia
  • List of Countries
  • For 7 days
  • Water Temperature
  • Satellite Maps
  • Weather Map
  • Weather Widgets
  • user-avatar
    Login

    Hourly Weather Lecco

    Today, 23 April, Monday

    Time Temperature Precipitation Wind Pressure Humidity
    00:00 +18°C° 0 mm 1 mps 743 mmHg 78%
    01:00 +18°C° 0 mm 1 mps 743 mmHg 74%
    02:00 +18°C° 0.1 mm 1 mps 743 mmHg 76%
    03:00 +18°C° 0.1 mm 1 mps 743 mmHg 77%
    04:00 +16°C° 0.1 mm 1 mps 743 mmHg 79%
    05:00 +18°C° 0.1 mm 1 mps 743 mmHg 77%
    06:00 +18°C° 0.1 mm 1 mps 743 mmHg 76%
    07:00 +19°C° 0.1 mm 1 mps 743 mmHg 75%
    08:00 +21°C° 0.1 mm 1 mps 743 mmHg 69%
    09:00 +22°C° 0.1 mm 1 mps 743 mmHg 64%
    10:00 +24°C° 0.1 mm 1 mps 743 mmHg 59%
    11:00 +25°C° 0.4 mm 1 mps 743 mmHg 58%
    12:00 +25°C° 0.4 mm 1 mps 743 mmHg 56%
    13:00 +26°C° 0.4 mm 2 mps 743 mmHg 54%
    14:00 +26°C° 0.4 mm 2 mps 742 mmHg 55%
    15:00 +26°C° 0.4 mm 1 mps 742 mmHg 55%
    16:00 +26°C° 0.4 mm 1 mps 742 mmHg 56%
    17:00 +24°C° 0.5 mm 1 mps 742 mmHg 62%
    18:00 +23°C° 0.5 mm 1 mps 742 mmHg 67%
    19:00 +21°C° 0.5 mm 1 mps 742 mmHg 73%
    20:00 +21°C° 0.7 mm 1 mps 742 mmHg 75%
    21:00 +20°C° 0.7 mm 1 mps 742 mmHg 78%
    22:00 +19°C° 0.7 mm 1 mps 743 mmHg 80%
    23:00 +18°C° 0.2 mm 2 mps 743 mmHg 80%

    Tomorrow, 24 April, Tuesday

    Time Temperature Precipitation Wind Pressure Humidity
    00:00 +17°C° 0.2 mm 2 mps 743 mmHg 81%
    01:00 +17°C° 0.2 mm 2 mps 743 mmHg 82%
    02:00 +16°C° 0 mm 2 mps 743 mmHg 83%
    03:00 +16°C° 0 mm 1 mps 743 mmHg 83%
    04:00 +16°C° 0 mm 1 mps 743 mmHg 84%
    05:00 +16°C° 0 mm 1 mps 743 mmHg 83%
    06:00 +18°C° 0 mm 1 mps 743 mmHg 82%
    07:00 +18°C° 0 mm 1 mps 744 mmHg 80%
    08:00 +20°C° 0 mm 1 mps 744 mmHg 74%
    09:00 +22°C° 0 mm 1 mps 744 mmHg 67%
    10:00 +23°C° 0 mm 1 mps 744 mmHg 61%
    11:00 +24°C° 0.5 mm 1 mps 744 mmHg 60%
    12:00 +25°C° 0.5 mm 1 mps 743 mmHg 59%
    13:00 +25°C° 0.5 mm 2 mps 743 mmHg 57%
    14:00 +25°C° 0.8 mm 2 mps 743 mmHg 59%
    15:00 +25°C° 0.8 mm 2 mps 742 mmHg 61%
    16:00 +25°C° 0.8 mm 2 mps 742 mmHg 62%
    17:00 +24°C° 0.8 mm 1 mps 742 mmHg 68%
    18:00 +22°C° 0.8 mm 1 mps 742 mmHg 73%
    19:00 +21°C° 0.8 mm 1 mps 742 mmHg 78%
    20:00 +20°C° 1 mm 1 mps 743 mmHg 80%
    21:00 +19°C° 1 mm 1 mps 743 mmHg 82%
    22:00 +19°C° 1 mm 1 mps 743 mmHg 84%
    23:00 +18°C° 0.4 mm 1 mps 743 mmHg 85%

    Day after tomorrow, 25 April, Wednesday

    Time Temperature Precipitation Wind Pressure Humidity
    00:00 +18°C° 0.4 mm 1 mps 743 mmHg 85%
    01:00 +16°C° 0.4 mm 1 mps 743 mmHg 85%
    02:00 +16°C° 0 mm 1 mps 743 mmHg 85%
    03:00 +16°C° 0 mm 1 mps 743 mmHg 86%
    04:00 +15°C° 0 mm 1 mps 743 mmHg 86%
    05:00 +16°C° 0 mm 1 mps 743 mmHg 85%
    06:00 +18°C° 0 mm 1 mps 743 mmHg 83%
    07:00 +16°C° 0 mm 0 mps 743 mmHg 82%
    08:00 +20°C° 0 mm 1 mps 743 mmHg 77%
    09:00 +21°C° 0 mm 1 mps 743 mmHg 72%
    10:00 +23°C° 0 mm 1 mps 743 mmHg 68%
    11:00 +24°C° 0 mm 1 mps 742 mmHg 64%
    12:00 +25°C° 0 mm 1 mps 742 mmHg 60%
    13:00 +25°C° 0 mm 2 mps 742 mmHg 56%
    14:00 +26°C° 0 mm 2 mps 742 mmHg 55%
    15:00 +26°C° 0 mm 2 mps 741 mmHg 55%
    16:00 +26°C° 0 mm 2 mps 741 mmHg 54%
    17:00 +24°C° 0 mm 1 mps 741 mmHg 61%
    18:00 +23°C° 0 mm 1 mps 741 mmHg 68%
    19:00 +22°C° 0 mm 1 mps 740 mmHg 75%
    20:00 +21°C° 0.1 mm 1 mps 741 mmHg 78%
    21:00 +20°C° 0.1 mm 1 mps 741 mmHg 81%
    22:00 +19°C° 0.1 mm 1 mps 742 mmHg 84%
    23:00 +19°C° 0 mm 1 mps 742 mmHg 85%

    26 April, Thursday

    Time Temperature Precipitation Wind Pressure Humidity
    00:00 +18°C° 0 mm 1 mps 741 mmHg 85%
    01:00 +18°C° 0 mm 1 mps 741 mmHg 86%
    02:00 +18°C° 0 mm 1 mps 741 mmHg 86%
    03:00 +16°C° 0 mm 1 mps 741 mmHg 87%
    04:00 +16°C° 0 mm 1 mps 741 mmHg 87%
    05:00 +18°C° 0.1 mm 1 mps 741 mmHg 86%
    06:00 +16°C° 0.1 mm 0 mps 741 mmHg 84%
    07:00 +17°C° 0.1 mm 0 mps 741 mmHg 83%
    08:00 +20°C° 0.2 mm 1 mps 741 mmHg 78%
    09:00 +21°C° 0.2 mm 1 mps 741 mmHg 74%
    10:00 +23°C° 0.2 mm 1 mps 741 mmHg 69%
    11:00 +23°C° 0.4 mm 1 mps 740 mmHg 68%
    12:00 +24°C° 0.4 mm 2 mps 740 mmHg 67%
    13:00 +24°C° 0.4 mm 2 mps 740 mmHg 66%
    14:00 +24°C° 0.7 mm 2 mps 740 mmHg 67%
    15:00 +24°C° 0.7 mm 2 mps 739 mmHg 69%
    16:00 +23°C° 0.7 mm 1 mps 739 mmHg 70%
    17:00 +22°C° 0.4 mm 1 mps 739 mmHg 73%
    18:00 +21°C° 0.4 mm 1 mps 739 mmHg 77%
    19:00 +20°C° 0.4 mm 1 mps 739 mmHg 80%
    20:00 +19°C° 0.4 mm 1 mps 740 mmHg 81%
    21:00 +18°C° 0.4 mm 1 mps 740 mmHg 82%
    22:00 +16°C° 0.4 mm 1 mps 741 mmHg 83%
    23:00 +16°C° 0.1 mm 1 mps 740 mmHg 83%

    27 April, Friday

    Time Temperature Precipitation Wind Pressure Humidity
    00:00 +16°C° 0.1 mm 2 mps 740 mmHg 82%
    01:00 +15°C° 0.1 mm 2 mps 740 mmHg 82%
    02:00 +15°C° 0 mm 1 mps 740 mmHg 82%
    03:00 +15°C° 0 mm 1 mps 740 mmHg 82%
    04:00 +16°C° 0 mm 1 mps 739 mmHg 82%
    05:00 +16°C° 0.3 mm 1 mps 739 mmHg 84%
    06:00 +16°C° 0.3 mm 1 mps 739 mmHg 85%
    07:00 +16°C° 0.3 mm 1 mps 739 mmHg 86%
    08:00 +16°C° 0.8 mm 2 mps 739 mmHg 87%
    09:00 +17°C° 0.8 mm 2 mps 739 mmHg 87%
    10:00 +17°C° 0.8 mm 3 mps 739 mmHg 87%
    11:00 +17°C° 0.7 mm 3 mps 738 mmHg 86%
    12:00 +18°C° 0.7 mm 3 mps 738 mmHg 85%
    13:00 +18°C° 0.7 mm 3 mps 738 mmHg 84%
    14:00 +18°C° 0.3 mm 3 mps 738 mmHg 83%
    15:00 +18°C° 0.3 mm 3 mps 738 mmHg 83%
    16:00 +18°C° 0.3 mm 2 mps 737 mmHg 82%
    17:00 +18°C° 0.2 mm 2 mps 737 mmHg 83%
    18:00 +18°C° 0.2 mm 2 mps 737 mmHg 85%
    19:00 +17°C° 0.2 mm 2 mps 737 mmHg 86%
    20:00 +17°C° 0.3 mm 2 mps 738 mmHg 86%
    21:00 +17°C° 0.3 mm 2 mps 738 mmHg 87%
    22:00 +16°C° 0.3 mm 2 mps 738 mmHg 87%
    23:00 +16°C° 0.6 mm 2 mps 738 mmHg 87%

    28 April, Saturday

    Time Temperature Precipitation Wind Pressure Humidity
    00:00 +16°C° 0.6 mm 2 mps 738 mmHg 88%
    01:00 +16°C° 0.6 mm 1 mps 738 mmHg 88%
    02:00 +15°C° 0.2 mm 1 mps 737 mmHg 89%
    03:00 +15°C° 0.2 mm 1 mps 737 mmHg 89%
    04:00 +15°C° 0.2 mm 1 mps 737 mmHg 89%
    05:00 +15°C° 0.1 mm 1 mps 737 mmHg 88%
    06:00 +16°C° 0.1 mm 1 mps 737 mmHg 87%
    07:00 +16°C° 0.1 mm 1 mps 737 mmHg 86%
    08:00 +18°C° 0.1 mm 1 mps 737 mmHg 83%
    09:00 +18°C° 0.1 mm 1 mps 737 mmHg 80%
    10:00 +18°C° 0.1 mm 2 mps 737 mmHg 77%
    11:00 +19°C° 0.2 mm 2 mps 737 mmHg 74%
    12:00 +20°C° 0.2 mm 2 mps 736 mmHg 71%
    13:00 +21°C° 0.2 mm 2 mps 736 mmHg 69%
    14:00 +21°C° 0.6 mm 2 mps 736 mmHg 70%
    15:00 +21°C° 0.6 mm 2 mps 735 mmHg 72%
    16:00 +21°C° 0.6 mm 2 mps 735 mmHg 73%
    17:00 +20°C° 1.5 mm 2 mps 735 mmHg 78%
    18:00 +19°C° 1.5 mm 2 mps 735 mmHg 82%
    19:00 +18°C° 1.5 mm 2 mps 735 mmHg 87%
    20:00 +17°C° 1.4 mm 2 mps 735 mmHg 88%
    21:00 +17°C° 1.4 mm 2 mps 735 mmHg 90%
    22:00 +17°C° 1.4 mm 2 mps 735 mmHg 91%
    23:00 +16°C° 1.1 mm 2 mps 735 mmHg 92%
    Show more